Weather History for Sheridan, WY

Change the Weather History Date:

Sunday, March 17, 2013

  Actual Average Record
Temperature  
Mean Temperature 30 °F 36 °F  
Max Temperature 40 °F 49 °F 73 °F (2012)
Min Temperature 20 °F 22 °F -11 °F (1943)
Degree Days  
Heating Degree Days 35 29  
Month to date heating degree days 506 544  
Since 1 July heating degree days 5829 6079  
Cooling Degree Days 0 0  
Month to date cooling degree days 0 0  
Year to date cooling degree days 0 0  
Moisture  
Dew Point 24 °F    
Average Humidity 65    
Maximum Humidity 92    
Minimum Humidity 38    
Precipitation  
Precipitation 0.01 in 0.04 in 0.70 in (2003)
Month to date precipitation 0.07 0.47  
Year to date precipitation 1.82 1.57  
Sea Level Pressure  
Sea Level Pressure 29.66 in    
Wind  
Wind Speed 19 mph (NW)    
Max Wind Speed 46 mph    
Max Gust Speed 61 mph    
Visibility 7 miles    
Events Fog , Snow    
T = Trace of Precipitation, MM = Missing Value Source: NWS Daily Summary

Daily Weather History Graph

Daily Weather History Graph

Search for Another Location

Airport:

Trip Planner

Search our weather history database for the weather conditions in past years. The results will help you decide how hot, cold, wet, or windy it might be!

Date:

Astronomy

Mar. 17, 2013 Rise Set
Actual Time 7:16 AM MDT 7:16 PM MDT
Civil Twilight 6:46 AM MDT 7:46 PM MDT
Nautical Twilight 6:12 AM MDT 8:20 PM MDT
Astronomical Twilight 5:38 AM MDT 8:55 PM MDT
Moon 10:17 AM MDT (3/17) 12:40 AM MDT (3/17)
Length of Visible Light 12h 59m
Length of Day
12h 00m
Waxing Crescent, 32% of the Moon is Illuminated
Mar 17
Waxing Crescent
Mar 19
First Quarter
Mar 27
Full
Apr 2
Last Quarter
Apr 10
New

Hourly Weather History & Observations

Time (MDT) Temp. Windchill Dew Point Humidity Pressure Visibility Wind Dir Wind Speed Gust Speed Precip Events Conditions
12:53 AM 35.1 °F 29.3 °F 26.1 °F 70% 29.69 in 10.0 mi SSE 6.9 mph - N/A   Clear
1:53 AM 34.0 °F 25.5 °F 28.0 °F 79% 29.63 in 10.0 mi SSE 11.5 mph - N/A   Clear
2:53 AM 34.0 °F 24.6 °F 28.9 °F 82% 29.59 in 10.0 mi SSE 13.8 mph 21.9 mph N/A   Clear
3:53 AM 32.0 °F 27.5 °F 28.0 °F 85% 29.53 in 10.0 mi SSE 4.6 mph - N/A   Clear
4:53 AM 30.0 °F 23.2 °F 26.1 °F 85% 29.51 in 10.0 mi West 6.9 mph - N/A   Partly Cloudy
5:53 AM 28.9 °F 25.2 °F 25.0 °F 85% 29.48 in 10.0 mi SW 3.5 mph - N/A   Clear
6:53 AM 28.0 °F 24.2 °F 26.1 °F 92% 29.48 in 10.0 mi SW 3.5 mph - N/A   Clear
7:53 AM 28.0 °F 24.2 °F 26.1 °F 92% 29.46 in 10.0 mi North 3.5 mph - N/A   Clear
8:53 AM 37.0 °F 29.8 °F 30.0 °F 76% 29.44 in 10.0 mi North 10.4 mph - N/A   Mostly Cloudy
9:53 AM 35.1 °F 21.6 °F 30.0 °F 82% 29.49 in 9.0 mi NW 31.1 mph 38.0 mph 0.00 in Snow Light Snow
10:29 AM 33.8 °F 19.0 °F 30.2 °F 87% 29.45 in 1.8 mi NW 35.7 mph 49.5 mph 0.00 in Snow Light Snow
10:33 AM 33.8 °F 19.4 °F 30.2 °F 87% 29.46 in 0.8 mi NW 33.4 mph 49.5 mph 0.00 in Snow Light Snow
10:42 AM 33.8 °F 20.8 °F 30.2 °F 87% 29.47 in 0.5 mi WNW 26.5 mph 42.6 mph 0.00 in Fog , Snow Snow
10:45 AM 33.8 °F 21.3 °F 30.2 °F 87% 29.48 in 0.2 mi NW 24.2 mph 35.7 mph N/A Fog , Snow Heavy Snow
10:53 AM 33.1 °F 21.2 °F 30.9 °F 92% 29.54 in 0.5 mi NW 20.7 mph 27.6 mph 0.01 in Fog , Snow Snow
10:55 AM 33.8 °F 22.5 °F 30.2 °F 87% 29.47 in 1.0 mi NW 19.6 mph 27.6 mph 0.00 in Snow Light Snow
10:59 AM 33.8 °F 22.2 °F 30.2 °F 87% 29.47 in 4.0 mi NW 20.7 mph - 0.00 in Snow Light Snow
11:15 AM 35.6 °F 24.2 °F 28.4 °F 75% 29.48 in 10.0 mi NW 21.9 mph 38.0 mph 0.00 in   Overcast
11:53 AM 37.0 °F 24.9 °F 30.0 °F 76% 29.55 in 10.0 mi NW 27.6 mph 34.5 mph 0.00 in   Mostly Cloudy
12:53 PM 37.9 °F 25.1 °F 27.0 °F 65% 29.56 in 10.0 mi NW 33.4 mph 43.7 mph N/A   Overcast
1:53 PM 37.0 °F 22.8 °F 21.0 °F 52% 29.58 in 9.0 mi NW 40.3 mph 51.8 mph 0.00 in   Mostly Cloudy
2:25 PM 33.8 °F 18.6 °F 21.2 °F 60% 29.55 in 10.0 mi NW 38.0 mph 48.3 mph 0.00 in   Mostly Cloudy
2:53 PM 34.0 °F 19.3 °F 21.9 °F 61% 29.63 in 9.0 mi NW 35.7 mph 47.2 mph 0.00 in   Overcast
3:53 PM 33.1 °F 18.4 °F 21.0 °F 61% 29.70 in 10.0 mi NW 33.4 mph 42.6 mph N/A   Overcast
4:53 PM 36.0 °F 23.7 °F 16.0 °F 44% 29.72 in 10.0 mi NW 26.5 mph 38.0 mph N/A   Overcast
5:53 PM 35.1 °F 22.5 °F 12.9 °F 40% 29.74 in 10.0 mi NW 26.5 mph 33.4 mph N/A   Partly Cloudy
6:53 PM 34.0 °F 23.0 °F 16.0 °F 48% 29.76 in 10.0 mi NW 18.4 mph - N/A   Scattered Clouds
7:50 PM 30.2 °F 17.1 °F 23.0 °F 75% 29.75 in 2.0 mi North 21.9 mph 29.9 mph 0.00 in Snow Light Snow
7:53 PM 28.9 °F 16.1 °F 24.1 °F 82% 29.86 in 1.8 mi NNW 19.6 mph 29.9 mph 0.00 in Snow Light Snow
8:10 PM 28.4 °F 18.5 °F 24.8 °F 86% 29.76 in 3.0 mi NNW 11.5 mph - 0.00 in Snow Light Snow
8:30 PM 26.6 °F 15.2 °F 23.0 °F 86% 29.76 in 10.0 mi NNW 13.8 mph - 0.00 in   Overcast
8:53 PM 26.1 °F 14.5 °F 23.0 °F 88% 29.86 in 4.0 mi NNW 13.8 mph - 0.00 in Snow Light Snow
9:00 PM 26.6 °F 15.7 °F 21.2 °F 80% 29.78 in 7.0 mi NNW 12.7 mph - 0.00 in Snow Light Snow
9:10 PM 26.6 °F 17.5 °F 21.2 °F 80% 29.79 in 9.0 mi NW 9.2 mph - 0.00 in Snow Light Snow
9:24 PM 24.8 °F 15.3 °F 21.2 °F 86% 29.80 in 3.0 mi NW 9.2 mph - 0.00 in Snow Light Snow
9:42 PM 23.0 °F 15.8 °F 21.2 °F 93% 29.80 in 10.0 mi NNW 5.8 mph - 0.00 in   Mostly Cloudy
9:50 PM 23.0 °F 13.1 °F 19.4 °F 86% 29.81 in 10.0 mi NNW 9.2 mph - 0.00 in   Mostly Cloudy
9:53 PM 23.0 °F 13.9 °F 19.9 °F 88% 29.91 in 10.0 mi NNW 8.1 mph - 0.00 in   Overcast
10:23 PM 24.8 °F 14.6 °F 19.4 °F 80% 29.83 in 10.0 mi West 10.4 mph - N/A   Overcast
10:35 PM 23.0 °F 13.9 °F 19.4 °F 86% 29.83 in 1.8 mi WNW 8.1 mph - 0.00 in Snow Light Snow
10:45 PM 23.0 °F 13.9 °F 19.4 °F 86% 29.83 in 2.5 mi NW 8.1 mph - 0.00 in Snow Light Snow
10:53 PM 23.0 °F 12.4 °F 19.9 °F 88% 29.94 in 6.0 mi NW 10.4 mph - 0.00 in Snow Light Snow
11:01 PM 23.0 °F 13.1 °F 19.4 °F 86% 29.83 in 8.0 mi NNW 9.2 mph - 0.00 in Snow Light Snow
11:45 PM 21.2 °F 8.9 °F 17.6 °F 86% 29.84 in 10.0 mi NNW 12.7 mph - 0.00 in   Overcast
11:53 PM 21.9 °F 11.0 °F 18.0 °F 85% 29.95 in 10.0 mi NW 10.4 mph - 0.00 in   Overcast